| time (UTC) | temp F | wind direction | speed knots | gust knots | rain 1hr in | rain 24hr in | rain mn in | humidity % | barometer mb |
| 20260504081759 | 44 | 56 | 0.0 | 0.0 | 0.00 | 0.00 | 0.00 | 69 | 1016.8 |
| 20260504081256 | 44 | 151 | 0.0 | 0.9 | 0.00 | 0.00 | 0.00 | 69 | 1016.8 |
| 20260504080753 | 43 | 169 | 0.0 | 0.0 | 0.00 | 0.00 | 0.00 | 70 | 1017.0 |
| 20260504080249 | 43 | 169 | 0.0 | 0.0 | 0.00 | 0.00 | 0.00 | 69 | 1017.0 |
| 20260504070217 | 45 | 228 | 0.0 | 0.9 | 0.00 | 0.00 | 0.00 | 60 | 1017.1 |
| 20260504060137 | 46 | 227 | 0.0 | 0.0 | 0.00 | 0.00 | 0.00 | 63 | 1017.4 |
| 20260504050605 | 46 | 170 | 0.0 | 0.0 | 0.00 | 0.00 | 0.00 | 61 | 1017.4 |
| 20260504045559 | 46 | 170 | 0.0 | 0.0 | 0.00 | 0.00 | 0.00 | 64 | 1017.6 |
| 20260504045054 | 46 | 169 | 0.0 | 0.0 | 0.00 | 0.00 | 0.00 | 63 | 1017.7 |
| 20260504044552 | 46 | 169 | 0.0 | 0.0 | 0.00 | 0.00 | 0.00 | 61 | 1017.7 |
| 20260504044043 | 46 | 162 | 0.0 | 0.9 | 0.00 | 0.00 | 0.00 | 62 | 1017.6 |
| 20260504043541 | 46 | 147 | 0.0 | 0.0 | 0.00 | 0.00 | 0.00 | 59 | 1017.7 |
| 20260504043038 | 46 | 146 | 0.0 | 0.0 | 0.00 | 0.00 | 0.00 | 58 | 1017.5 |
| 20260504042535 | 46 | 147 | 0.0 | 0.9 | 0.00 | 0.00 | 0.00 | 58 | 1017.7 |
| 20260504042032 | 46 | 147 | 0.0 | 0.0 | 0.00 | 0.00 | 0.00 | 58 | 1017.5 |
| 20260504041528 | 47 | 147 | 0.0 | 0.0 | 0.00 | 0.00 | 0.00 | 57 | 1017.5 |
| 20260504041024 | 47 | 146 | 0.0 | 0.0 | 0.00 | 0.00 | 0.00 | 58 | 1017.5 |
| 20260504040521 | 48 | 160 | 0.0 | 0.9 | 0.00 | 0.00 | 0.00 | 60 | 1017.6 |
| 20260504040018 | 48 | 162 | 0.0 | 0.0 | 0.00 | 0.00 | 0.00 | 55 | 1017.6 |
| 20260504035515 | 48 | 160 | 0.0 | 0.0 | 0.00 | 0.00 | 0.00 | 54 | 1017.6 |
| 20260504035011 | 49 | 189 | 0.9 | 0.9 | 0.00 | 0.00 | 0.00 | 57 | 1017.6 |
| 20260504034509 | 49 | 262 | 0.0 | 0.9 | 0.00 | 0.00 | 0.00 | 49 | 1017.7 |
| 20260504034006 | 50 | 263 | 0.9 | 1.7 | 0.00 | 0.00 | 0.00 | 49 | 1017.8 |
| 20260504033504 | 50 | 266 | 0.9 | 0.9 | 0.00 | 0.00 | 0.00 | 48 | 1017.6 |
| 20260504033001 | 49 | 241 | 0.9 | 2.6 | 0.00 | 0.00 | 0.00 | 45 | 1017.8 |
| 20260504032457 | 49 | 268 | 0.0 | 1.7 | 0.00 | 0.00 | 0.00 | 46 | 1017.6 |
| 20260504031953 | 49 | 269 | 0.9 | 1.7 | 0.00 | 0.00 | 0.00 | 50 | 1017.6 |
| 20260504031450 | 49 | 257 | 0.0 | 0.9 | 0.00 | 0.00 | 0.00 | 48 | 1017.5 |
| 20260504030947 | 49 | 256 | 0.9 | 1.7 | 0.00 | 0.00 | 0.00 | 50 | 1017.6 |
| 20260504030445 | 49 | 259 | 0.9 | 1.7 | 0.00 | 0.00 | 0.00 | 47 | 1017.5 |
| 20260504025940 | 48 | 259 | 0.0 | 0.9 | 0.00 | 0.00 | 0.00 | 48 | 1017.5 |
| 20260504025438 | 49 | 258 | 0.0 | 0.0 | 0.00 | 0.00 | 0.00 | 52 | 1017.5 |
| 20260504024935 | 49 | 258 | 0.0 | 1.7 | 0.00 | 0.00 | 0.00 | 52 | 1017.7 |
| 20260504024432 | 49 | 264 | 0.0 | 0.0 | 0.00 | 0.00 | 0.00 | 51 | 1017.7 |
| 20260504023929 | 49 | 264 | 0.9 | 0.9 | 0.00 | 0.00 | 0.00 | 52 | 1017.6 |
| 20260504023425 | 49 | 264 | 0.0 | 0.9 | 0.00 | 0.00 | 0.00 | 44 | 1017.6 |
| 20260504022921 | 49 | 268 | 0.0 | 0.9 | 0.00 | 0.00 | 0.00 | 49 | 1017.6 |
| 20260504022418 | 48 | 288 | 1.7 | 1.7 | 0.00 | 0.00 | 0.00 | 50 | 1017.6 |
| 20260504021914 | 48 | 263 | 0.0 | 0.9 | 0.00 | 0.00 | 0.00 | 50 | 1017.6 |
| 20260504021411 | 48 | 255 | 0.0 | 1.7 | 0.00 | 0.00 | 0.00 | 53 | 1017.5 |
| 20260504020908 | 48 | 229 | 0.0 | 0.0 | 0.00 | 0.00 | 0.00 | 49 | 1017.5 |
| 20260504020404 | 48 | 238 | 0.0 | 0.9 | 0.00 | 0.00 | 0.00 | 48 | 1017.5 |
| 20260504015855 | 49 | 244 | 0.0 | 0.9 | 0.00 | 0.00 | 0.00 | 47 | 1017.7 |
| 20260504015352 | 49 | 314 | 1.7 | 2.6 | 0.00 | 0.00 | 0.00 | 46 | 1017.7 |
| 20260504014848 | 48 | 257 | 1.7 | 2.6 | 0.00 | 0.00 | 0.00 | 47 | 1017.7 |
| 20260504014344 | 48 | 254 | 0.0 | 0.9 | 0.00 | 0.00 | 0.00 | 49 | 1017.4 |
| 20260504013842 | 48 | 254 | 0.9 | 1.7 | 0.00 | 0.00 | 0.00 | 49 | 1017.3 |
| 20260504013339 | 48 | 261 | 0.9 | 1.7 | 0.00 | 0.00 | 0.00 | 48 | 1017.3 |
| 20260504012836 | 48 | 276 | 2.6 | 2.6 | 0.00 | 0.00 | 0.00 | 47 | 1017.3 |
| 20260504012334 | 48 | 269 | 1.7 | 1.7 | 0.00 | 0.00 | 0.00 | 47 | 1017.1 |
| 20260504011831 | 48 | 270 | 1.7 | 1.7 | 0.00 | 0.00 | 0.00 | 48 | 1017.2 |
| 20260504011327 | 48 | 266 | 1.7 | 2.6 | 0.00 | 0.00 | 0.00 | 49 | 1017.2 |
| 20260504010823 | 48 | 262 | 0.0 | 1.7 | 0.00 | 0.00 | 0.00 | 46 | 1016.9 |
| 20260504010319 | 49 | 257 | 1.7 | 1.7 | 0.00 | 0.00 | 0.00 | 50 | 1017.2 |
| 20260504005816 | 49 | 270 | 0.9 | 0.9 | 0.00 | 0.00 | 0.00 | 45 | 1017.2 |
| 20260504005313 | 49 | 268 | 0.9 | 1.7 | 0.00 | 0.00 | 0.00 | 46 | 1017.0 |
| 20260504004810 | 49 | 255 | 0.0 | 1.7 | 0.00 | 0.00 | 0.00 | 44 | 1017.1 |
| 20260504004308 | 49 | 255 | 1.7 | 1.7 | 0.00 | 0.00 | 0.00 | 48 | 1017.1 |
| 20260504003804 | 50 | 257 | 0.9 | 1.7 | 0.00 | 0.00 | 0.00 | 46 | 1016.9 |
| 20260504003301 | 50 | 268 | 0.9 | 1.7 | 0.00 | 0.00 | 0.00 | 44 | 1016.8 |
| 20260504002757 | 50 | 261 | 1.7 | 1.7 | 0.00 | 0.00 | 0.00 | 45 | 1016.8 |
| 20260504002255 | 51 | 273 | 0.9 | 1.7 | 0.00 | 0.00 | 0.00 | 40 | 1016.7 |
| 20260504001752 | 51 | 240 | 0.0 | 0.9 | 0.00 | 0.00 | 0.00 | 41 | 1016.8 |
| 20260504001249 | 52 | 259 | 0.9 | 1.7 | 0.00 | 0.00 | 0.00 | 41 | 1016.8 |
| 20260504000746 | 52 | 264 | 0.0 | 0.0 | 0.00 | 0.00 | 0.00 | 39 | 1016.8 |
| 20260504000243 | 52 | 244 | 0.9 | 1.7 | 0.00 | 0.00 | 0.00 | 37 | 1016.9 |
| 20260503235741 | 52 | 249 | 0.9 | 0.9 | 0.00 | 0.00 | 0.00 | 37 | 1016.7 |
| 20260503235238 | 52 | 268 | 0.0 | 0.9 | 0.00 | 0.00 | 0.00 | 38 | 1016.9 |
| 20260503234735 | 53 | 269 | 0.0 | 1.7 | 0.00 | 0.00 | 0.00 | 40 | 1016.9 |
| 20260503234233 | 53 | 240 | 0.9 | 0.9 | 0.00 | 0.00 | 0.00 | 37 | 1016.9 |
| 20260503233730 | 54 | 213 | 0.0 | 0.0 | 0.00 | 0.00 | 0.00 | 35 | 1016.9 |
| 20260503233226 | 55 | 219 | 0.9 | 3.5 | 0.00 | 0.00 | 0.00 | 35 | 1016.9 |
| 20260503232723 | 55 | 227 | 0.9 | 3.5 | 0.00 | 0.00 | 0.00 | 34 | 1017.0 |
| 20260503232220 | 55 | 253 | 0.0 | 3.5 | 0.00 | 0.00 | 0.00 | 34 | 1016.9 |
| 20260503231719 | 55 | 124 | 2.6 | 3.5 | 0.00 | 0.00 | 0.00 | 37 | 1016.6 |
| 20260503231215 | 55 | 259 | 1.7 | 2.6 | 0.00 | 0.00 | 0.00 | 35 | 1016.8 |
| 20260503230711 | 55 | 185 | 0.0 | 0.0 | 0.00 | 0.00 | 0.00 | 33 | 1016.8 |
| 20260503230208 | 56 | 257 | 0.9 | 2.6 | 0.00 | 0.00 | 0.00 | 33 | 1016.8 |
| 20260503225705 | 56 | 243 | 2.6 | 2.6 | 0.00 | 0.00 | 0.00 | 31 | 1016.6 |
| 20260503225200 | 56 | 274 | 1.7 | 6.1 | 0.00 | 0.00 | 0.00 | 30 | 1016.7 |
| 20260503224657 | 57 | 284 | 3.5 | 6.1 | 0.00 | 0.00 | 0.00 | 32 | 1016.6 |
| 20260503224155 | 58 | 108 | 1.7 | 5.2 | 0.00 | 0.00 | 0.00 | 29 | 1016.7 |
| 20260503223653 | 59 | 292 | 0.9 | 1.7 | 0.00 | 0.00 | 0.00 | 30 | 1016.8 |
| 20260503223149 | 59 | 255 | 2.6 | 3.5 | 0.00 | 0.00 | 0.00 | 29 | 1016.7 |
| 20260503222646 | 59 | 290 | 2.6 | 7.0 | 0.00 | 0.00 | 0.00 | 29 | 1016.7 |
| 20260503222144 | 59 | 265 | 2.6 | 5.2 | 0.00 | 0.00 | 0.00 | 28 | 1016.8 |
| 20260503221643 | 59 | 268 | 3.5 | 7.0 | 0.00 | 0.00 | 0.00 | 30 | 1016.6 |
| 20260503221139 | 60 | 255 | 1.7 | 3.5 | 0.00 | 0.00 | 0.00 | 34 | 1016.5 |
| 20260503220635 | 61 | 335 | 1.7 | 6.1 | 0.00 | 0.00 | 0.00 | 27 | 1016.7 |
| 20260503220132 | 60 | 277 | 1.7 | 5.2 | 0.00 | 0.00 | 0.00 | 28 | 1016.7 |
| 20260503215630 | 60 | 253 | 0.9 | 3.5 | 0.00 | 0.00 | 0.00 | 35 | 1016.7 |
| 20260503215126 | 60 | 304 | 2.6 | 5.2 | 0.00 | 0.00 | 0.00 | 27 | 1016.8 |
| 20260503214625 | 60 | 255 | 4.3 | 5.2 | 0.00 | 0.00 | 0.00 | 29 | 1016.8 |
| 20260503214120 | 60 | 303 | 1.7 | 8.7 | 0.00 | 0.00 | 0.00 | 29 | 1016.9 |
| 20260503213615 | 61 | 3 | 5.2 | 6.1 | 0.00 | 0.00 | 0.00 | 26 | 1016.9 |
| 20260503213110 | 60 | 267 | 3.5 | 7.8 | 0.00 | 0.00 | 0.00 | 29 | 1016.9 |
| 20260503212608 | 60 | 239 | 0.9 | 5.2 | 0.00 | 0.00 | 0.00 | 29 | 1016.7 |
| 20260503212105 | 60 | 268 | 2.6 | 5.2 | 0.00 | 0.00 | 0.00 | 28 | 1016.9 |
| 20260503211603 | 60 | 270 | 1.7 | 7.0 | 0.00 | 0.00 | 0.00 | 30 | 1017.1 |
| 20260503211058 | 60 | 280 | 2.6 | 5.2 | 0.00 | 0.00 | 0.00 | 29 | 1016.8 |
| 20260503210555 | 60 | 245 | 1.7 | 7.0 | 0.00 | 0.00 | 0.00 | 30 | 1016.9 |
| 20260503210050 | 60 | 337 | 3.5 | 3.5 | 0.00 | 0.00 | 0.00 | 28 | 1016.9 |
| 20260503205547 | 60 | 273 | 5.2 | 7.8 | 0.00 | 0.00 | 0.00 | 28 | 1017.2 |
| 20260503205044 | 61 | 308 | 5.2 | 7.8 | 0.00 | 0.00 | 0.00 | 29 | 1017.1 |
| 20260503204541 | 60 | 35 | 1.7 | 3.5 | 0.00 | 0.00 | 0.00 | 30 | 1017.0 |
| 20260503204038 | 60 | 329 | 3.5 | 5.2 | 0.00 | 0.00 | 0.00 | 28 | 1016.9 |
| 20260503203535 | 60 | 298 | 3.5 | 8.7 | 0.00 | 0.00 | 0.00 | 30 | 1017.1 |
| 20260503203032 | 60 | 241 | 6.1 | 9.6 | 0.00 | 0.00 | 0.00 | 30 | 1017.3 |
| 20260503202530 | 60 | 340 | 2.6 | 5.2 | 0.00 | 0.00 | 0.00 | 30 | 1017.4 |
| 20260503202027 | 61 | 299 | 6.1 | 8.7 | 0.00 | 0.00 | 0.00 | 30 | 1017.3 |
| 20260503201520 | 62 | 242 | 2.6 | 3.5 | 0.00 | 0.00 | 0.00 | 27 | 1017.5 |
| 20260503201017 | 60 | 277 | 0.9 | 6.1 | 0.00 | 0.00 | 0.00 | 28 | 1017.6 |
| 20260503200513 | 60 | 332 | 2.6 | 3.5 | 0.00 | 0.00 | 0.00 | 30 | 1017.5 |
| 20260503200010 | 61 | 303 | 8.7 | 9.6 | 0.00 | 0.00 | 0.00 | 28 | 1017.7 |
| 20260503195507 | 60 | 317 | 4.3 | 5.2 | 0.00 | 0.00 | 0.00 | 31 | 1017.6 |
| 20260503195003 | 60 | 251 | 3.5 | 7.8 | 0.00 | 0.00 | 0.00 | 31 | 1017.6 |
| 20260503194500 | 60 | 265 | 3.5 | 7.0 | 0.00 | 0.00 | 0.00 | 30 | 1017.7 |
| 20260503193955 | 59 | 245 | 3.5 | 7.8 | 0.00 | 0.00 | 0.00 | 31 | 1017.9 |
| 20260503193451 | 60 | 307 | 4.3 | 11.3 | 0.00 | 0.00 | 0.00 | 28 | 1017.8 |
| 20260503192947 | 59 | 320 | 3.5 | 5.2 | 0.00 | 0.00 | 0.00 | 30 | 1017.7 |
| 20260503192443 | 60 | 359 | 3.5 | 6.1 | 0.00 | 0.00 | 0.00 | 30 | 1017.7 |
| 20260503191939 | 61 | 281 | 0.0 | 7.0 | 0.00 | 0.00 | 0.00 | 29 | 1018.0 |
| 20260503191437 | 59 | 197 | 0.0 | 2.6 | 0.00 | 0.00 | 0.00 | 33 | 1018.0 |
| 20260503190933 | 60 | 221 | 3.5 | 7.8 | 0.00 | 0.00 | 0.00 | 29 | 1018.1 |
| 20260503190431 | 58 | 253 | 1.7 | 11.3 | 0.00 | 0.00 | 0.00 | 31 | 1018.2 |
| 20260503185927 | 59 | 290 | 2.6 | 7.8 | 0.00 | 0.00 | 0.00 | 29 | 1018.3 |
| 20260503185424 | 59 | 86 | 1.7 | 5.2 | 0.00 | 0.00 | 0.00 | 34 | 1018.3 |
| 20260503184923 | 60 | 178 | 2.6 | 5.2 | 0.00 | 0.00 | 0.00 | 32 | 1018.4 |
| 20260503184420 | 58 | 243 | 5.2 | 13.0 | 0.00 | 0.00 | 0.00 | 30 | 1018.7 |
| 20260503183916 | 59 | 198 | 2.6 | 5.2 | 0.00 | 0.00 | 0.00 | 30 | 1018.7 |
| 20260503183413 | 58 | 276 | 3.5 | 7.0 | 0.00 | 0.00 | 0.00 | 33 | 1018.7 |
| 20260503182910 | 59 | 164 | 4.3 | 7.8 | 0.00 | 0.00 | 0.00 | 30 | 1018.7 |
| 20260503182409 | 59 | 80 | 1.7 | 3.5 | 0.00 | 0.00 | 0.00 | 30 | 1018.5 |
| 20260503181906 | 60 | 300 | 2.6 | 7.0 | 0.00 | 0.00 | 0.00 | 33 | 1018.5 |
| 20260503181403 | 58 | 131 | 1.7 | 1.7 | 0.00 | 0.00 | 0.00 | 32 | 1018.5 |
| 20260503180859 | 58 | 286 | 0.9 | 3.5 | 0.00 | 0.00 | 0.00 | 31 | 1018.8 |
| 20260503180357 | 56 | 268 | 7.0 | 8.7 | 0.00 | 0.00 | 0.00 | 33 | 1018.8 |
| 20260503175853 | 57 | 267 | 4.3 | 7.8 | 0.00 | 0.00 | 0.00 | 32 | 1018.8 |
| 20260503175351 | 58 | 133 | 4.3 | 5.2 | 0.00 | 0.00 | 0.00 | 31 | 1018.8 |
| 20260503174847 | 56 | 352 | 1.7 | 8.7 | 0.00 | 0.00 | 0.00 | 35 | 1018.8 |
| 20260503174345 | 57 | 330 | 4.3 | 12.2 | 0.00 | 0.00 | 0.00 | 32 | 1018.9 |
| 20260503173845 | 57 | 295 | 7.0 | 9.6 | 0.00 | 0.00 | 0.00 | 33 | 1018.8 |
| 20260503173342 | 57 | 53 | 1.7 | 3.5 | 0.00 | 0.00 | 0.00 | 33 | 1018.9 |
| 20260503172838 | 56 | 234 | 4.3 | 7.8 | 0.00 | 0.00 | 0.00 | 32 | 1018.7 |
| 20260503172336 | 56 | 310 | 6.1 | 7.8 | 0.00 | 0.00 | 0.00 | 37 | 1019.2 |
| 20260503171832 | 57 | 323 | 8.7 | 9.6 | 0.00 | 0.00 | 0.00 | 34 | 1019.1 |
| 20260503171329 | 56 | 223 | 0.9 | 3.5 | 0.00 | 0.00 | 0.00 | 33 | 1019.0 |
| 20260503170826 | 56 | 239 | 6.1 | 7.0 | 0.00 | 0.00 | 0.00 | 34 | 1019.2 |
| 20260503170323 | 56 | 319 | 3.5 | 7.8 | 0.00 | 0.00 | 0.00 | 32 | 1019.2 |
| 20260503150715 | 49 | 279 | 3.5 | 8.7 | 0.00 | 0.00 | 0.00 | 44 | 1020.1 |
| 20260503150211 | 50 | 318 | 3.5 | 8.7 | 0.00 | 0.00 | 0.00 | 40 | 1020.4 |
| 20260503140136 | 47 | 321 | 3.5 | 3.5 | 0.00 | 0.00 | 0.00 | 52 | 1020.1 |
| 20260503131105 | 46 | 323 | 5.2 | 8.7 | 0.00 | 0.00 | 0.00 | 52 | 1020.3 |
| 20260503130603 | 46 | 317 | 8.7 | 11.3 | 0.00 | 0.00 | 0.00 | 53 | 1020.2 |
| 20260503110453 | 40 | 271 | 0.0 | 0.0 | 0.00 | 0.00 | 0.00 | 65 | 1019.1 |